EW4321 Weather Reports


Display with metric or nautical units.
time (UTC)temp
F
wind
direction
speed
MPH
gust
MPH
rain 1hr
in
rain 24hr
in
rain mn
in
humidity
%
barometer
mb
20260504044606 52 231 10.0 16.0 0.00 0.00 0.00 81 1015.7
20260504044103 52 229 10.0 16.0 0.00 0.00 0.00 80 1015.8
20260504043625 52 226 9.0 15.0 0.00 0.00 0.00 80 1015.8
20260504043103 52 217 10.0 15.0 0.00 0.00 0.00 79 1015.8
20260504042103 52 229 10.0 17.0 0.00 0.00 0.00 79 1015.7
20260504041603 52 229 12.0 17.0 0.00 0.00 0.00 78 1015.7
20260504041103 52 226 9.0 12.0 0.00 0.00 0.00 78 1015.7
20260504040604 52 221 9.0 13.0 0.00 0.00 0.00 78 1015.7
20260504040124 52 222 9.0 13.0 0.00 0.00 0.00 78 1015.6
20260504035603 52 226 8.0 14.0 0.00 0.00 0.00 79 1015.5
20260504035104 52 228 8.0 14.0 0.00 0.00 0.00 77 1015.5
20260504034103 52 223 8.0 12.0 0.00 0.00 0.00 75 1015.4
20260504033603 52 226 8.0 13.0 0.00 0.00 0.00 75 1015.4
20260504033103 52 221 7.0 13.0 0.00 0.00 0.00 75 1015.4
20260504032604 52 226 8.0 13.0 0.00 0.00 0.00 74 1015.4
20260504032103 52 230 10.0 13.0 0.00 0.00 0.00 74 1015.4
20260504031603 52 233 8.0 14.0 0.00 0.00 0.00 74 1015.4
20260504031103 52 238 8.0 14.0 0.00 0.00 0.00 74 1015.4
20260504030603 52 228 10.0 12.0 0.00 0.00 0.00 73 1015.4
20260504025603 52 232 8.0 13.0 0.00 0.00 0.00 72 1015.3
20260504025146 52 237 8.0 13.0 0.00 0.00 0.00 72 1015.3
20260504024603 53 240 9.0 13.0 0.00 0.00 0.00 70 1015.3
20260504024103 53 241 9.0 13.0 0.00 0.00 0.00 71 1015.4
20260504023604 53 237 8.0 13.0 0.00 0.00 0.00 71 1015.3
20260504023104 53 233 8.0 12.0 0.00 0.00 0.00 72 1015.3
20260504022624 53 234 8.0 13.0 0.00 0.00 0.00 73 1015.3
20260504022103 53 230 9.0 13.0 0.00 0.00 0.00 74 1015.3
20260504021604 53 224 9.0 13.0 0.00 0.00 0.00 74 1015.3
20260504021103 53 230 8.0 12.0 0.00 0.00 0.00 74 1015.3
20260504020604 53 231 8.0 12.0 0.00 0.00 0.00 74 1015.3
20260504020103 53 229 8.0 12.0 0.00 0.00 0.00 73 1015.3
20260504015603 53 231 8.0 12.0 0.00 0.00 0.00 72 1015.2
20260504015104 53 229 8.0 12.0 0.00 0.00 0.00 71 1015.2
20260504014603 53 226 8.0 11.0 0.00 0.00 0.00 72 1015.2
20260504014103 53 233 7.0 11.0 0.00 0.00 0.00 74 1015.1
20260504013603 53 229 7.0 11.0 0.00 0.00 0.00 74 1015.1
20260504013124 53 230 8.0 13.0 0.00 0.00 0.00 73 1015.1
20260504012604 54 225 8.0 13.0 0.00 0.00 0.00 73 1015.0
20260504012103 53 229 9.0 12.0 0.00 0.00 0.00 70 1015.0
20260504011604 53 228 7.0 11.0 0.00 0.00 0.00 72 1015.0
20260504011103 54 234 8.0 10.0 0.00 0.00 0.00 74 1014.9
20260504010603 54 234 6.0 11.0 0.00 0.00 0.00 71 1014.8
20260504005604 54 232 8.0 11.0 0.00 0.00 0.00 67 1014.5
20260504005103 54 234 6.0 9.0 0.00 0.00 0.00 69 1014.5
20260504004606 54 246 7.0 10.0 0.00 0.00 0.00 69 1014.5
20260504004124 54 247 8.0 10.0 0.00 0.00 0.00 68 1014.4
20260504003603 54 243 7.0 9.0 0.00 0.00 0.00 67 1014.4
20260504003104 55 235 6.0 10.0 0.00 0.00 0.00 66 1014.3
20260504002603 55 236 5.0 10.0 0.00 0.00 0.00 65 1014.3
20260504002103 55 246 8.0 11.0 0.00 0.00 0.00 64 1014.2
20260504001603 55 249 7.0 11.0 0.00 0.00 0.00 67 1014.2
20260504001104 55 252 8.0 12.0 0.00 0.00 0.00 68 1014.1
20260504000603 55 257 9.0 12.0 0.00 0.00 0.00 65 1014.2
20260504000103 56 260 10.0 13.0 0.00 0.00 0.00 64 1014.1
20260503235603 56 264 9.0 13.0 0.00 0.00 0.00 65 1014.0
20260503235104 56 268 11.0 17.0 0.00 0.00 0.00 61 1013.9
20260503234603 56 268 12.0 17.0 0.00 0.00 0.00 61 1013.8
20260503234104 56 265 13.0 16.0 0.00 0.00 0.00 58 1013.7
20260503233603 56 266 10.0 15.0 0.00 0.00 0.00 62 1013.7
20260503233103 56 268 13.0 16.0 0.00 0.00 0.00 58 1013.7
20260503232603 57 269 12.0 17.0 0.00 0.00 0.00 58 1013.7
20260503232103 57 275 14.0 17.0 0.00 0.00 0.00 57 1013.7
20260503231603 57 281 13.0 19.0 0.00 0.00 0.00 60 1013.7
20260503231105 57 282 15.0 21.0 0.00 0.00 0.00 59 1013.6
20260503230603 57 278 16.0 21.0 0.00 0.00 0.00 56 1013.6
20260503230103 58 275 18.0 24.0 0.00 0.00 0.00 56 1013.6
20260503225603 58 280 19.0 24.0 0.00 0.00 0.00 56 1013.5
20260503225124 58 273 18.0 23.0 0.00 0.00 0.00 53 1013.5
20260503224604 58 276 18.0 24.0 0.00 0.00 0.00 57 1013.5
20260503223603 58 283 18.0 26.0 0.00 0.00 0.00 55 1013.5
20260503223103 58 288 20.0 29.0 0.00 0.00 0.00 56 1013.4
20260503222603 58 290 24.0 29.0 0.00 0.00 0.00 53 1013.3
20260503222103 58 276 21.0 25.0 0.00 0.00 0.00 54 1013.4
20260503221603 58 290 17.0 26.0 0.00 0.00 0.00 55 1013.4
20260503221103 58 290 21.0 26.0 0.00 0.00 0.00 53 1013.3
20260503220103 58 287 23.0 27.0 0.00 0.00 0.00 51 1013.2
20260503215603 59 286 19.0 28.0 0.00 0.00 0.00 51 1013.2
20260503215103 59 290 23.0 29.0 0.00 0.00 0.00 51 1013.2
20260503214603 59 285 18.0 29.0 0.00 0.00 0.00 50 1013.1
20260503214103 58 295 15.0 21.0 0.00 0.00 0.00 51 1013.1
20260503213602 58 299 14.0 22.0 0.00 0.00 0.00 49 1013.1
20260503213105 59 302 14.0 25.0 0.00 0.00 0.00 53 1013.0
20260503212603 59 299 14.0 30.0 0.00 0.00 0.00 50 1012.9
20260503212125 58 287 23.0 30.0 0.00 0.00 0.00 51 1012.9
20260503211603 59 282 22.0 29.0 0.00 0.00 0.00 51 1012.9
20260503211103 58 284 23.0 30.0 0.00 0.00 0.00 52 1013.0
20260503210604 58 294 18.0 30.0 0.00 0.00 0.00 53 1013.1
20260503205604 58 291 18.0 31.0 0.00 0.00 0.00 51 1013.0
20260503205124 58 300 18.0 31.0 0.00 0.00 0.00 51 1013.1
20260503204603 58 297 16.0 27.0 0.00 0.00 0.00 51 1013.0
20260503204103 58 292 20.0 31.0 0.00 0.00 0.00 51 1013.0
20260503203624 58 273 21.0 31.0 0.00 0.00 0.00 54 1013.0
20260503203103 58 290 17.0 24.0 0.00 0.00 0.00 52 1013.0
20260503202603 58 285 19.0 28.0 0.00 0.00 0.00 50 1013.0
20260503202103 58 285 23.0 28.0 0.00 0.00 0.00 52 1012.9
20260503201604 58 281 21.0 27.0 0.00 0.00 0.00 54 1012.9
20260503201105 58 297 15.0 29.0 0.00 0.00 0.00 56 1012.8
20260503200603 57 274 19.0 29.0 0.00 0.00 0.00 53 1013.0
20260503195603 57 286 21.0 30.0 0.00 0.00 0.00 55 1013.0
20260503195104 57 293 21.0 30.0 0.00 0.00 0.00 50 1013.1
20260503194604 57 293 18.0 25.0 0.00 0.00 0.00 53 1013.2
20260503194103 57 296 16.0 28.0 0.00 0.00 0.00 56 1013.2
20260503193603 57 287 19.0 28.0 0.00 0.00 0.00 54 1013.2
20260503193103 57 294 20.0 28.0 0.00 0.00 0.00 55 1013.2
20260503192603 56 300 18.0 29.0 0.00 0.00 0.00 56 1013.3
20260503192103 57 294 23.0 32.0 0.00 0.00 0.00 56 1013.3
20260503191604 56 295 21.0 32.0 0.00 0.00 0.00 56 1013.4
20260503191103 56 296 24.0 31.0 0.00 0.00 0.00 58 1013.3
20260503190625 56 305 14.0 27.0 0.00 0.00 0.00 57 1013.3
20260503190125 56 293 16.0 26.0 0.00 0.00 0.00 56 1013.5
20260503185603 55 298 14.0 27.0 0.00 0.00 0.00 56 1013.5
20260503185103 56 295 22.0 27.0 0.00 0.00 0.00 58 1013.5
20260503184603 55 284 19.0 23.0 0.00 0.00 0.00 58 1013.6
20260503184103 55 318 12.0 24.0 0.00 0.00 0.00 56 1013.7
20260503183603 55 297 16.0 29.0 0.00 0.00 0.00 57 1013.7
20260503183105 55 289 17.0 30.0 0.00 0.00 0.00 54 1013.7
20260503182625 55 298 15.0 30.0 0.00 0.00 0.00 58 1013.7
20260503182103 56 292 20.0 29.0 0.00 0.00 0.00 57 1013.7
20260503181604 56 287 24.0 29.0 0.00 0.00 0.00 60 1013.7
20260503181103 55 301 11.0 29.0 0.00 0.00 0.00 57 1013.8
20260503180603 54 321 12.0 29.0 0.00 0.00 0.00 60 1013.8
20260503175603 55 283 20.0 30.0 0.00 0.00 0.00 59 1013.7
20260503175103 55 298 17.0 31.0 0.00 0.00 0.00 56 1013.8
20260503174103 54 296 17.0 28.0 0.00 0.00 0.00 61 1013.8
20260503173603 54 293 18.0 28.0 0.00 0.00 0.00 58 1013.7
20260503173103 53 320 14.0 21.0 0.00 0.00 0.00 58 1013.9
20260503172603 53 288 17.0 26.0 0.00 0.00 0.00 63 1013.9
20260503172103 53 286 19.0 27.0 0.00 0.00 0.00 60 1013.8
20260503171603 55 288 23.0 28.0 0.00 0.00 0.00 58 1013.7
20260503171103 54 294 15.0 28.0 0.00 0.00 0.00 59 1013.8
20260503170624 54 283 17.0 21.0 0.00 0.00 0.00 61 1013.7
20260503150603 52 293 19.0 25.0 0.00 0.00 0.00 65 1014.2
20260503131103 49 300 14.0 23.0 0.00 0.00 0.00 73 1013.8
20260503130603 49 324 17.0 23.0 0.00 0.00 0.00 69 1013.8
20260503130104 49 316 12.0 25.0 0.00 0.00 0.00 72 1013.7
20260503110603 46 318 10.0 20.0 0.00 0.00 0.00 78 1012.8
20260503081603 49 328 12.0 18.0 0.00 0.00 0.00 74 1010.7
20260503081102 49 322 13.0 18.0 0.00 0.00 0.00 73 1010.7
20260503080603 50 324 14.0 18.0 0.00 0.00 0.00 72 1010.7
20260503072603 50 325 12.0 17.0 0.00 0.00 0.00 74 1010.4
20260503072102 50 323 10.0 17.0 0.00 0.00 0.00 73 1010.5
20260503071603 50 316 11.0 17.0 0.00 0.00 0.00 74 1010.6
20260503071102 50 316 11.0 18.0 0.00 0.00 0.00 74 1010.6
20260503070603 50 304 8.0 18.0 0.00 0.00 0.00 76 1010.7
20260503060105 51 306 8.0 17.0 0.00 0.00 0.00 75 1010.9
20260503055103 51 310 9.0 16.0 0.00 0.00 0.00 76 1010.9
20260503054603 51 304 9.0 16.0 0.00 0.00 0.00 75 1011.0
20260503054103 51 303 9.0 18.0 0.00 0.00 0.00 75 1011.0
20260503053602 51 305 10.0 18.0 0.00 0.00 0.00 75 1011.0
20260503053124 51 314 7.0 15.0 0.00 0.00 0.00 76 1011.2
20260503052603 51 314 9.0 15.0 0.00 0.00 0.00 75 1011.0
20260503052102 51 321 9.0 13.0 0.00 0.00 0.00 75 1011.0
20260503051603 51 311 7.0 13.0 0.00 0.00 0.00 75 1011.2
20260503051124 51 320 9.0 15.0 0.00 0.00 0.00 75 1011.1
20260503050603 52 317 9.0 15.0 0.00 0.00 0.00 75 1011.1
20260503045607 52 312 7.0 14.0 0.00 0.00 0.00 77 1011.0
20260503045106 52 318 8.0 15.0 0.00 0.00 0.00 76 1011.0